Location: Allos
(44.2333°N, 6.6333°E)
Time: 10:04:53
(UTC+00:00)

NOSS 3-2 (C) - Pass Details

Date: 01 December 2020
Orbit: 789 x 1424 km, 63.4° (Epoch: 09 January)

Event Time Altitude Azimuth Distance (km) Brightness Sun altitude
Rises 18:07:16 0° 200° (SSW) 3,308 6.7 -22.9°
Reaches altitude 10° 18:09:38 10° 195° (SSW) 2,419 5.8 -23.3°
Maximum altitude 18:15:00 54° 119° (ESE) 1,067 3.4 -24.3°
Enters shadow 18:15:13 54° 111° (ESE) 1,074 3.3 -24.3°
